Location: Unspecified
(0.0000°N, 0.0000°E)
Time: 19:05:34
(UTC+00:00)

deb Kosmos-1275 - Pass Details

Date: 08 March 2026
Orbit: 880 x 1009 km, 83.1° (Epoch: 21 April)

Event Time Altitude Azimuth Distance (km) Brightness Sun altitude
Exits shadow 03:18:45 25° 96° (E) 1,832 ? -42.8°
Drops below altitude 10° 03:23:06 10° 141° (SE) 2,679 ? -41.8°
Sets 03:25:59 0° 153° (SSE) 3,604 ? -41.0°
